Location: Pradons
(44.4746°N, 4.3578°E)
Time: 20:20:33
(UTC+00:00)

Cosmos 1703 - Pass Details

Date: 12 August 2020
Orbit: 523 x 541 km, 82.5° (Epoch: 01 October)

Event Time Altitude Azimuth Distance (km) Brightness Sun altitude
Rises 03:16:12 0° 345° (NNW) 2,709 7.2 -14.1°
Reaches altitude 10° 03:18:25 10° 340° (NNW) 1,811 6.2 -13.8°
Maximum altitude 03:22:15 47° 266° (W) 721 3.5 -13.3°
Enters shadow 03:25:29 14° 195° (SSW) 1,574 5.2 -12.8°
